Terug naar catalogus

COSMOS 252 DEB

ActiefLEO
NORAD 3554·DEBRIS·🇷🇺 Russia

Gelanceerd Nov 1, 1968 vanaf Baikonur Cosmodrome

Loading…

Volgende Passages (komende 24 uur)

TLE

VersSource: Space-Track

Epoch: Sep 14, 2026, 10:06 UTC

1 03554U 68097G   26257.42091546  .00001703  00000-0  43981-3 0  9999
2 03554  62.2691 162.7892 0541656 327.0942  29.7424 13.90688813837928

Volg COSMOS 252 DEB in realtime met AllMySat

Download on the App Store